Flag for U.S.A. Weather past 2 weeks in Decatur, Illinois, U.S.A.

Now
81 °F

Passing clouds.


Feels Like: 82 °F
Forecast: 61 / 83 °F
Wind: 9 mph from West

Location: Decatur Airport

Current Time: Aug 4, 2015 at 3:18:58 PM

Latest Report: Aug 4, 2015 at 2:54 PM


Visibility: 10 mi

Pressure: 30.02 "Hg

Humidity: 49%

Dew point: 60 °F

Location of DecaturLocation

Historic Weather in Decatur — Graph

°F

Decatur temperature yesterday

Maximum temperature yesterday: 87 °F (at 2:54 PM)
Minimum temperature yesterday: 66 °F (at 11:54 PM)
Average temperature yesterday: 78 °F

Past Weeks' High & Low Weather Summary

 TemperatureHumidityPressure
High92 °F (Jul 28, 2:54 PM)97% (Jul 28, 6:03 AM)30.13 "Hg (Jul 28, 6:03 AM)
Low58 °F (Jul 22, 5:54 AM)32% (Aug 1, 12:54 PM)29.76 "Hg (Jul 20, 7:54 PM)
Average77 °F70%29.95 "Hg
* Reported Jul 20 1:54 PM — Aug 4 1:54 PM, Decatur, Weather by CustomWeather, © 2015

Note: Actual official high and low records may vary slightly from our data, if they occured in-between our weather recording intervals... More about our weather records

Advertising

Decatur weather history for previous 24 hours

 ConditionsComfort  
Time TempWeatherWind HumidityBarometerVisibility
1:54 PM
Tue, Aug 4
80 °FPartly sunny.7 mph49%30.01 "Hg10 mi
12:54 PM79 °FScattered clouds.3 mph47%30.01 "Hg10 mi
11:54 AM78 °FScattered clouds.No wind50%30.01 "Hg10 mi
10:54 AM78 °FSunny.3 mph50%30.00 "Hg10 mi
9:54 AM78 °FSunny.No wind50%30.01 "Hg10 mi
8:54 AM72 °FSunny.3 mph66%30.01 "Hg10 mi
7:54 AM70 °FSunny.3 mph73%29.99 "Hg10 mi
6:54 AM66 °FClear.3 mph87%29.98 "Hg10 mi
5:54 AM64 °FPassing clouds.No wind87%29.98 "Hg10 mi
4:54 AM64 °FClear.3 mph87%29.95 "Hg10 mi
3:54 AM65 °FClear.No wind85%29.94 "Hg10 mi
2:54 AM63 °FClear.No wind90%29.93 "Hg10 mi
1:54 AM64 °FClear.3 mph87%29.93 "Hg10 mi
12:54 AM66 °FClear.No wind84%29.94 "Hg10 mi
11:54 PM
Mon, Aug 3
66 °FClear.3 mph84%29.94 "Hg10 mi
10:54 PM72 °FClear.7 mph66%29.93 "Hg10 mi
9:54 PM73 °FClear.3 mph69%29.93 "Hg10 mi
8:54 PM75 °FSunny.7 mph64%29.90 "Hg10 mi
7:54 PM78 °FSunny.6 mph58%29.88 "Hg10 mi
6:54 PM82 °FSunny.9 mph49%29.87 "Hg10 mi
5:54 PM84 °FPassing clouds.12 mph48%29.87 "Hg10 mi
4:54 PM86 °FSunny.10 mph45%29.88 "Hg10 mi
3:54 PM86 °FPassing clouds.13 mph46%29.88 "Hg10 mi
Weather by CustomWeather, © 2015

See weather overviewHow to use our weather pages